Time,TemperatureF,DewpointF,PressureIn,WindDirection,WindDirectionDegrees,WindSpeedMPH,WindSpeedGustMPH,Humidity,HourlyPrecipIn,Conditions,Clouds,dailyrainin,SoftwareType,DateUTC
2013-01-26 00:02:00,27.3,23.2,29.93,WSW,258,8.0,25.0,84,0.00,,,0.00,meteohub,2013-01-26 05:02:00,
2013-01-26 00:07:00,27.5,23.4,29.93,SSW,212,8.0,25.0,84,0.00,,,0.00,meteohub,2013-01-26 05:07:00,
2013-01-26 00:12:00,27.5,22.8,29.90,NNW,348,11.0,20.0,82,0.00,,,0.00,meteohub,2013-01-26 05:12:00,
2013-01-26 00:17:00,27.7,22.6,29.90,SW,235,5.0,16.0,81,0.00,,,0.00,meteohub,2013-01-26 05:17:00,
2013-01-26 00:22:00,27.9,22.5,29.90,WNW,302,12.0,16.0,80,0.00,,,0.00,meteohub,2013-01-26 05:22:00,
2013-01-26 00:27:00,27.9,22.3,29.93,SSW,212,6.0,16.0,79,0.00,,,0.00,meteohub,2013-01-26 05:27:00,
2013-01-26 00:32:00,28.0,21.7,29.93,WSW,258,12.0,16.0,77,0.00,,,0.00,meteohub,2013-01-26 05:32:00,
2013-01-26 00:37:00,28.0,21.6,29.93,WNW,302,26.0,26.0,76,0.00,,,0.00,meteohub,2013-01-26 05:37:00,
2013-01-26 00:42:00,28.0,21.2,29.93,ENE,78,5.0,26.0,75,0.00,,,0.00,meteohub,2013-01-26 05:42:00,
2013-01-26 00:47:00,28.0,20.8,29.93,SSW,212,13.0,26.0,74,0.00,,,0.00,meteohub,2013-01-26 05:47:00,
2013-01-26 00:52:00,28.0,20.5,29.93,West,280,12.0,26.0,73,0.00,,,0.00,meteohub,2013-01-26 05:52:00,
2013-01-26 00:57:00,28.2,20.3,29.93,NNW,348,17.0,19.0,72,0.00,,,0.00,meteohub,2013-01-26 05:57:00,
2013-01-26 01:02:00,28.0,19.9,29.93,WNW,302,9.0,21.0,71,0.00,,,0.00,meteohub,2013-01-26 06:02:00,
2013-01-26 01:07:00,28.0,19.9,29.93,WSW,258,12.0,21.0,71,0.00,,,0.00,meteohub,2013-01-26 06:07:00,
2013-01-26 01:12:00,28.0,19.2,29.93,West,280,7.0,24.0,69,0.00,,,0.00,meteohub,2013-01-26 06:12:00,
2013-01-26 01:17:00,27.9,19.4,29.93,WSW,258,24.0,24.0,70,0.00,,,0.00,meteohub,2013-01-26 06:17:00,
2013-01-26 01:22:00,27.9,19.4,29.93,North,10,22.0,24.0,70,0.00,,,0.00,meteohub,2013-01-26 06:22:00,
2013-01-26 01:27:00,27.9,19.0,29.93,NNE,32,21.0,24.0,69,0.00,,,0.00,meteohub,2013-01-26 06:27:00,
2013-01-26 01:32:00,27.7,18.9,29.93,NW,325,17.0,24.0,69,0.00,,,0.00,meteohub,2013-01-26 06:32:00,
2013-01-26 01:37:00,27.7,18.5,29.93,WSW,258,19.0,22.0,68,0.00,,,0.00,meteohub,2013-01-26 06:37:00,
2013-01-26 01:42:00,27.5,18.3,29.93,NNW,348,7.0,24.0,68,0.00,,,0.00,meteohub,2013-01-26 06:42:00,
2013-01-26 01:47:00,27.3,18.5,29.93,NNW,348,7.0,25.0,69,0.00,,,0.00,meteohub,2013-01-26 06:47:00,
2013-01-26 01:52:00,27.3,18.1,29.93,NNW,348,26.0,26.0,68,0.00,,,0.00,meteohub,2013-01-26 06:52:00,
2013-01-26 01:57:00,27.3,17.8,29.93,North,10,14.0,31.0,67,0.00,,,0.00,meteohub,2013-01-26 06:57:00,
2013-01-26 02:02:00,27.3,17.4,29.93,WNW,302,21.0,40.0,66,0.00,,,0.00,meteohub,2013-01-26 07:02:00,
2013-01-26 02:07:00,27.1,16.9,29.93,WSW,258,4.0,40.0,65,0.00,,,0.00,meteohub,2013-01-26 07:07:00,
2013-01-26 02:12:00,27.1,17.2,29.96,WSW,258,11.0,40.0,66,0.00,,,0.00,meteohub,2013-01-26 07:12:00,
2013-01-26 02:17:00,27.0,17.1,29.96,WNW,302,13.0,39.0,66,0.00,,,0.00,meteohub,2013-01-26 07:17:00,
2013-01-26 02:22:00,27.0,16.7,29.96,NNW,348,10.0,30.0,65,0.00,,,0.00,meteohub,2013-01-26 07:22:00,
2013-01-26 02:27:00,27.0,16.7,29.96,SSW,212,9.0,34.0,65,0.00,,,0.00,meteohub,2013-01-26 07:27:00,
2013-01-26 02:32:00,26.8,16.7,29.96,NNW,348,17.0,34.0,65,0.00,,,0.00,meteohub,2013-01-26 07:32:00,
2013-01-26 02:37:00,26.6,16.2,29.96,WNW,302,8.0,30.0,64,0.00,,,0.00,meteohub,2013-01-26 07:37:00,
2013-01-26 02:42:00,26.6,16.2,29.93,SSW,212,11.0,29.0,64,0.00,,,0.00,meteohub,2013-01-26 07:42:00,
2013-01-26 02:47:00,26.6,16.2,29.93,South,190,15.0,29.0,64,0.00,,,0.00,meteohub,2013-01-26 07:47:00,
2013-01-26 02:52:00,26.4,16.0,29.93,WNW,302,14.0,29.0,64,0.00,,,0.00,meteohub,2013-01-26 07:52:00,
2013-01-26 02:57:00,26.4,16.3,29.96,WNW,302,19.0,34.0,65,0.00,,,0.00,meteohub,2013-01-26 07:57:00,
2013-01-26 03:02:00,26.4,16.3,29.96,SSW,212,35.0,35.0,65,0.00,,,0.00,meteohub,2013-01-26 08:02:00,
2013-01-26 03:07:00,26.2,16.2,29.96,WNW,302,12.0,50.0,65,0.00,,,0.00,meteohub,2013-01-26 08:07:00,
2013-01-26 03:12:00,26.2,16.2,29.96,WNW,302,21.0,50.0,65,0.00,,,0.00,meteohub,2013-01-26 08:12:00,
2013-01-26 03:17:00,26.2,16.2,29.96,WSW,258,21.0,50.0,65,0.00,,,0.00,meteohub,2013-01-26 08:17:00,
2013-01-26 03:22:00,26.1,16.0,29.96,North,10,25.0,31.0,65,0.00,,,0.00,meteohub,2013-01-26 08:22:00,
2013-01-26 03:27:00,26.1,15.6,29.96,WNW,302,11.0,31.0,64,0.00,,,0.00,meteohub,2013-01-26 08:27:00,
2013-01-26 03:32:00,26.1,16.0,29.96,WNW,302,13.0,31.0,65,0.00,,,0.00,meteohub,2013-01-26 08:32:00,
2013-01-26 03:37:00,26.1,15.6,29.96,WNW,302,12.0,34.0,64,0.00,,,0.00,meteohub,2013-01-26 08:37:00,
2013-01-26 03:42:00,25.9,15.8,29.96,NNE,32,11.0,34.0,65,0.00,,,0.00,meteohub,2013-01-26 08:42:00,
2013-01-26 03:47:00,25.7,15.3,29.96,NNW,348,25.0,34.0,64,0.00,,,0.00,meteohub,2013-01-26 08:47:00,
2013-01-26 03:52:00,25.7,15.6,29.96,SW,235,19.0,36.0,65,0.00,,,0.00,meteohub,2013-01-26 08:52:00,
2013-01-26 03:57:00,25.5,15.4,29.96,SW,235,11.0,36.0,65,0.00,,,0.00,meteohub,2013-01-26 08:57:00,
2013-01-26 04:02:00,25.3,15.6,29.96,North,10,12.0,36.0,66,0.00,,,0.00,meteohub,2013-01-26 09:02:00,
2013-01-26 04:07:00,25.3,15.6,29.96,North,10,13.0,36.0,66,0.00,,,0.00,meteohub,2013-01-26 09:07:00,
2013-01-26 04:12:00,25.2,16.2,29.96,NW,325,15.0,36.0,68,0.00,,,0.00,meteohub,2013-01-26 09:12:00,
2013-01-26 04:17:00,25.2,16.2,29.96,WNW,302,25.0,29.0,68,0.00,,,0.00,meteohub,2013-01-26 09:17:00,
2013-01-26 04:22:00,25.0,15.6,29.96,WNW,302,17.0,34.0,67,0.00,,,0.00,meteohub,2013-01-26 09:22:00,
2013-01-26 04:27:00,24.8,15.8,29.99,West,280,12.0,34.0,68,0.00,,,0.00,meteohub,2013-01-26 09:27:00,
2013-01-26 04:32:00,24.8,15.4,29.99,North,10,21.0,34.0,67,0.00,,,0.00,meteohub,2013-01-26 09:32:00,
2013-01-26 04:37:00,24.6,15.3,29.99,NNW,348,27.0,31.0,67,0.00,,,0.00,meteohub,2013-01-26 09:37:00,
2013-01-26 04:42:00,24.4,15.4,29.99,WNW,302,16.0,37.0,68,0.00,,,0.00,meteohub,2013-01-26 09:42:00,
2013-01-26 04:47:00,24.4,15.4,29.99,NNE,32,20.0,37.0,68,0.00,,,0.00,meteohub,2013-01-26 09:47:00,
2013-01-26 04:52:00,24.3,14.9,29.99,NW,325,18.0,35.0,67,0.00,,,0.00,meteohub,2013-01-26 09:52:00,
2013-01-26 04:57:00,24.3,14.9,29.99,NNW,348,17.0,39.0,67,0.00,,,0.00,meteohub,2013-01-26 09:57:00,
2013-01-26 05:02:00,24.1,14.7,29.99,WNW,302,22.0,39.0,67,0.00,,,0.00,meteohub,2013-01-26 10:02:00,
2013-01-26 05:07:00,24.1,14.7,29.99,WNW,302,21.0,39.0,67,0.00,,,0.00,meteohub,2013-01-26 10:07:00,
2013-01-26 05:12:00,24.1,15.1,29.96,NNW,348,15.0,39.0,68,0.00,,,0.00,meteohub,2013-01-26 10:12:00,
2013-01-26 05:17:00,23.9,14.5,29.96,NW,325,6.0,54.0,67,0.00,,,0.00,meteohub,2013-01-26 10:17:00,
2013-01-26 05:22:00,23.9,14.9,29.96,NE,55,9.0,54.0,68,0.00,,,0.00,meteohub,2013-01-26 10:22:00,
2013-01-26 05:27:00,23.7,14.4,29.99,SW,235,5.0,54.0,67,0.00,,,0.00,meteohub,2013-01-26 10:27:00,
2013-01-26 05:32:00,23.7,14.4,29.99,NW,325,13.0,33.0,67,0.00,,,0.00,meteohub,2013-01-26 10:32:00,
2013-01-26 05:37:00,23.9,14.2,29.99,WNW,302,5.0,15.0,66,0.00,,,0.00,meteohub,2013-01-26 10:37:00,
2013-01-26 05:42:00,23.9,13.5,29.96,NW,325,12.0,17.0,64,0.00,,,0.00,meteohub,2013-01-26 10:42:00,
2013-01-26 05:47:00,24.1,13.3,29.96,WSW,258,9.0,34.0,63,0.00,,,0.00,meteohub,2013-01-26 10:47:00,
2013-01-26 05:52:00,24.3,12.7,29.96,West,280,9.0,34.0,61,0.00,,,0.00,meteohub,2013-01-26 10:52:00,
2013-01-26 05:57:00,24.3,12.7,29.99,NNE,32,2.0,24.0,61,0.00,,,0.00,meteohub,2013-01-26 10:57:00,
2013-01-26 06:02:00,24.3,12.7,29.99,SSW,212,8.0,24.0,61,0.00,,,0.00,meteohub,2013-01-26 11:02:00,
2013-01-26 06:07:00,24.4,12.6,29.99,SSW,212,17.0,17.0,60,0.00,,,0.00,meteohub,2013-01-26 11:07:00,
2013-01-26 06:12:00,24.4,12.2,29.99,ESE,122,6.0,18.0,59,0.00,,,0.00,meteohub,2013-01-26 11:12:00,
2013-01-26 06:17:00,24.4,12.2,29.99,North,10,15.0,18.0,59,0.00,,,0.00,meteohub,2013-01-26 11:17:00,
2013-01-26 06:22:00,24.6,12.0,29.99,SW,235,9.0,18.0,58,0.00,,,0.00,meteohub,2013-01-26 11:22:00,
2013-01-26 06:27:00,24.6,11.7,29.99,WSW,258,6.0,20.0,57,0.00,,,0.00,meteohub,2013-01-26 11:27:00,
2013-01-26 06:32:00,24.8,11.8,29.99,SSE,168,7.0,20.0,57,0.00,,,0.00,meteohub,2013-01-26 11:32:00,
2013-01-26 06:37:00,24.8,11.8,29.99,SSE,168,7.0,18.0,57,0.00,,,0.00,meteohub,2013-01-26 11:37:00,
2013-01-26 06:42:00,25.0,11.5,29.99,SW,235,10.0,16.0,56,0.00,,,0.00,meteohub,2013-01-26 11:42:00,
2013-01-26 06:47:00,25.0,11.5,29.99,ESE,122,5.0,15.0,56,0.00,,,0.00,meteohub,2013-01-26 11:47:00,
2013-01-26 06:52:00,25.0,11.5,29.99,SSE,168,6.0,13.0,56,0.00,,,0.00,meteohub,2013-01-26 11:52:00,
2013-01-26 06:57:00,25.0,11.5,29.99,ENE,78,6.0,13.0,56,0.00,,,0.00,meteohub,2013-01-26 11:57:00,
2013-01-26 07:02:00,25.2,11.3,29.99,South,190,5.0,13.0,55,0.00,,,0.00,meteohub,2013-01-26 12:02:00,
2013-01-26 07:07:00,25.2,11.3,29.99,SW,235,12.0,22.0,55,0.00,,,0.00,meteohub,2013-01-26 12:07:00,
2013-01-26 07:12:00,25.3,11.5,29.99,WSW,258,12.0,22.0,55,0.00,,,0.00,meteohub,2013-01-26 12:12:00,
2013-01-26 07:17:00,25.3,11.5,29.99,SSW,212,9.0,22.0,55,0.00,,,0.00,meteohub,2013-01-26 12:17:00,
2013-01-26 07:22:00,25.3,11.5,29.99,SE,145,3.0,13.0,55,0.00,,,0.00,meteohub,2013-01-26 12:22:00,
2013-01-26 07:27:00,25.3,11.5,30.01,SSE,168,7.0,12.0,55,0.00,,,0.00,meteohub,2013-01-26 12:27:00,
2013-01-26 07:32:00,25.3,11.5,30.01,NE,55,4.0,12.0,55,0.00,,,0.00,meteohub,2013-01-26 12:32:00,
2013-01-26 07:37:00,25.3,11.5,30.01,East,100,17.0,17.0,55,0.00,,,0.00,meteohub,2013-01-26 12:37:00,
2013-01-26 07:42:00,25.5,11.7,30.01,SSW,212,5.0,17.0,55,0.00,,,0.00,meteohub,2013-01-26 12:42:00,
2013-01-26 07:47:00,25.5,11.7,30.01,SSW,212,8.0,17.0,55,0.00,,,0.00,meteohub,2013-01-26 12:47:00,
2013-01-26 07:52:00,25.7,11.3,30.01,SSE,168,8.0,17.0,54,0.00,,,0.00,meteohub,2013-01-26 12:52:00,
2013-01-26 07:57:00,25.7,11.3,30.01,SSW,212,16.0,17.0,54,0.00,,,0.00,meteohub,2013-01-26 12:57:00,
2013-01-26 08:02:00,25.9,11.5,30.01,South,190,7.0,21.0,54,0.00,,,0.00,meteohub,2013-01-26 13:02:00,
2013-01-26 08:07:00,26.1,11.7,30.01,SSE,168,5.0,21.0,54,0.00,,,0.00,meteohub,2013-01-26 13:07:00,
2013-01-26 08:12:00,26.1,11.7,30.04,South,190,8.0,21.0,54,0.00,,,0.00,meteohub,2013-01-26 13:12:00,
2013-01-26 08:17:00,26.2,11.8,30.04,SSW,212,7.0,15.0,54,0.00,,,0.00,meteohub,2013-01-26 13:17:00,
2013-01-26 08:22:00,26.2,11.8,30.04,SSW,212,5.0,13.0,54,0.00,,,0.00,meteohub,2013-01-26 13:22:00,
2013-01-26 08:27:00,26.4,12.0,30.04,SSW,212,6.0,13.0,54,0.00,,,0.00,meteohub,2013-01-26 13:27:00,
2013-01-26 08:32:00,26.6,12.2,30.04,SSW,212,16.0,16.0,54,0.00,,,0.00,meteohub,2013-01-26 13:32:00,
2013-01-26 08:37:00,26.8,12.0,30.04,SSW,212,15.0,17.0,53,0.00,,,0.00,meteohub,2013-01-26 13:37:00,
2013-01-26 08:42:00,27.0,12.2,30.04,South,190,5.0,17.0,53,0.00,,,0.00,meteohub,2013-01-26 13:42:00,
2013-01-26 08:47:00,27.0,12.2,30.04,South,190,6.0,17.0,53,0.00,,,0.00,meteohub,2013-01-26 13:47:00,
2013-01-26 08:57:00,27.7,12.4,30.04,SSE,168,8.0,20.0,52,0.00,,,0.00,meteohub,2013-01-26 13:57:00,
2013-01-26 09:02:00,27.9,12.6,30.04,SW,235,6.0,20.0,52,0.00,,,0.00,meteohub,2013-01-26 14:02:00,
2013-01-26 09:07:00,28.0,12.7,30.04,SE,145,15.0,15.0,52,0.00,,,0.00,meteohub,2013-01-26 14:07:00,
2013-01-26 09:12:00,28.2,12.9,30.01,WNW,302,8.0,20.0,52,0.00,,,0.00,meteohub,2013-01-26 14:12:00,
2013-01-26 09:17:00,28.2,12.4,30.01,ESE,122,8.0,20.0,51,0.00,,,0.00,meteohub,2013-01-26 14:17:00,
2013-01-26 09:22:00,28.4,12.6,30.01,West,280,9.0,20.0,51,0.00,,,0.00,meteohub,2013-01-26 14:22:00,
2013-01-26 09:27:00,28.2,12.4,30.04,SW,235,11.0,17.0,51,0.00,,,0.00,meteohub,2013-01-26 14:27:00,
2013-01-26 09:32:00,28.4,12.6,30.04,WSW,258,5.0,20.0,51,0.00,,,0.00,meteohub,2013-01-26 14:32:00,
2013-01-26 09:37:00,28.4,13.1,30.04,WSW,258,6.0,20.0,52,0.00,,,0.00,meteohub,2013-01-26 14:37:00,
2013-01-26 09:42:00,28.4,13.1,30.04,SW,235,10.0,20.0,52,0.00,,,0.00,meteohub,2013-01-26 14:42:00,
2013-01-26 09:47:00,28.6,12.7,30.04,East,100,11.0,17.0,51,0.00,,,0.00,meteohub,2013-01-26 14:47:00,
2013-01-26 09:52:00,29.7,14.2,30.04,WSW,258,5.0,15.0,52,0.00,,,0.00,meteohub,2013-01-26 14:52:00,
2013-01-26 09:57:00,29.7,13.8,30.04,West,280,7.0,15.0,51,0.00,,,0.00,meteohub,2013-01-26 14:57:00,
2013-01-26 10:02:00,29.5,13.6,30.04,WSW,258,7.0,15.0,51,0.00,,,0.00,meteohub,2013-01-26 15:02:00,
2013-01-26 10:07:00,30.0,14.2,30.04,SSW,212,7.0,19.0,51,0.00,,,0.00,meteohub,2013-01-26 15:07:00,
2013-01-26 10:12:00,30.2,14.4,30.07,WSW,258,10.0,19.0,51,0.00,,,0.00,meteohub,2013-01-26 15:12:00,
2013-01-26 10:17:00,30.0,14.2,30.07,WNW,302,8.0,21.0,51,0.00,,,0.00,meteohub,2013-01-26 15:17:00,
2013-01-26 10:22:00,30.0,14.2,30.07,SW,235,3.0,21.0,51,0.00,,,0.00,meteohub,2013-01-26 15:22:00,
2013-01-26 10:27:00,29.8,14.0,30.07,NNW,348,12.0,21.0,51,0.00,,,0.00,meteohub,2013-01-26 15:27:00,
2013-01-26 10:32:00,30.2,14.4,30.07,North,10,5.0,17.0,51,0.00,,,0.00,meteohub,2013-01-26 15:32:00,
2013-01-26 10:37:00,30.7,14.4,30.07,SSW,212,6.0,15.0,50,0.00,,,0.00,meteohub,2013-01-26 15:37:00,
2013-01-26 10:42:00,30.2,13.8,30.07,WSW,258,12.0,17.0,50,0.00,,,0.00,meteohub,2013-01-26 15:42:00,
2013-01-26 10:47:00,30.0,14.2,30.07,SE,145,14.0,26.0,51,0.00,,,0.00,meteohub,2013-01-26 15:47:00,
2013-01-26 10:57:00,30.7,14.4,30.07,NNW,348,12.0,26.0,50,0.00,,,0.00,meteohub,2013-01-26 15:57:00,
2013-01-26 11:02:00,31.1,14.2,30.07,West,280,8.0,22.0,49,0.00,,,0.00,meteohub,2013-01-26 16:02:00,
2013-01-26 11:07:00,30.9,14.0,30.07,WSW,258,6.0,29.0,49,0.00,,,0.00,meteohub,2013-01-26 16:07:00,
2013-01-26 11:12:00,30.7,13.8,30.07,NNW,348,11.0,29.0,49,0.00,,,0.00,meteohub,2013-01-26 16:12:00,
2013-01-26 11:17:00,30.7,14.4,30.07,WNW,302,8.0,29.0,50,0.00,,,0.00,meteohub,2013-01-26 16:17:00,
2013-01-26 11:22:00,30.7,14.4,30.07,WSW,258,7.0,20.0,50,0.00,,,0.00,meteohub,2013-01-26 16:22:00,
2013-01-26 11:27:00,30.4,14.0,30.07,SW,235,16.0,20.0,50,0.00,,,0.00,meteohub,2013-01-26 16:27:00,
2013-01-26 11:32:00,30.4,14.0,30.07,WSW,258,8.0,17.0,50,0.00,,,0.00,meteohub,2013-01-26 16:32:00,
2013-01-26 11:37:00,30.2,14.4,30.07,WSW,258,9.0,16.0,51,0.00,,,0.00,meteohub,2013-01-26 16:37:00,
2013-01-26 11:42:00,30.2,14.4,30.07,SSW,212,7.0,22.0,51,0.00,,,0.00,meteohub,2013-01-26 16:42:00,
2013-01-26 11:47:00,30.2,14.4,30.07,ENE,78,4.0,26.0,51,0.00,,,0.00,meteohub,2013-01-26 16:47:00,
2013-01-26 11:57:00,30.0,14.5,30.07,SSW,212,4.0,26.0,52,0.00,,,0.00,meteohub,2013-01-26 16:57:00,
2013-01-26 12:02:00,29.8,14.0,30.07,SW,235,9.0,26.0,51,0.00,,,0.00,meteohub,2013-01-26 17:02:00,
2013-01-26 12:07:00,29.8,14.4,30.07,SSW,212,9.0,20.0,52,0.00,,,0.00,meteohub,2013-01-26 17:07:00,
2013-01-26 12:12:00,29.8,14.4,30.07,SSE,168,6.0,19.0,52,0.00,,,0.00,meteohub,2013-01-26 17:12:00,
2013-01-26 12:17:00,29.8,14.0,30.07,SSW,212,34.0,34.0,51,0.00,,,0.00,meteohub,2013-01-26 17:17:00,
2013-01-26 12:22:00,30.0,14.5,30.07,WSW,258,10.0,34.0,52,0.00,,,0.00,meteohub,2013-01-26 17:22:00,
2013-01-26 12:27:00,29.8,14.0,30.07,South,190,12.0,34.0,51,0.00,,,0.00,meteohub,2013-01-26 17:27:00,
2013-01-26 12:32:00,30.0,14.2,30.07,South,190,13.0,34.0,51,0.00,,,0.00,meteohub,2013-01-26 17:32:00,
2013-01-26 12:37:00,30.4,14.0,30.07,South,190,13.0,20.0,50,0.00,,,0.00,meteohub,2013-01-26 17:37:00,
2013-01-26 12:42:00,30.9,14.5,30.07,SSW,212,12.0,29.0,50,0.00,,,0.00,meteohub,2013-01-26 17:42:00,
2013-01-26 12:47:00,31.5,14.5,30.07,South,190,8.0,29.0,49,0.00,,,0.00,meteohub,2013-01-26 17:47:00,
2013-01-26 12:52:00,32.0,14.5,30.07,SSW,212,8.0,29.0,48,0.00,,,0.00,meteohub,2013-01-26 17:52:00,
2013-01-26 12:57:00,31.1,12.7,30.07,West,280,8.0,26.0,46,0.00,,,0.00,meteohub,2013-01-26 17:57:00,
2013-01-26 13:02:00,31.3,13.5,30.07,NW,325,10.0,29.0,47,0.00,,,0.00,meteohub,2013-01-26 18:02:00,
2013-01-26 13:07:00,31.3,13.5,30.07,WSW,258,5.0,29.0,47,0.00,,,0.00,meteohub,2013-01-26 18:07:00,
2013-01-26 13:12:00,31.1,13.3,30.07,SSW,212,16.0,29.0,47,0.00,,,0.00,meteohub,2013-01-26 18:12:00,
2013-01-26 13:17:00,30.9,13.1,30.07,West,280,8.0,24.0,47,0.00,,,0.00,meteohub,2013-01-26 18:17:00,
2013-01-26 13:22:00,30.9,13.6,30.07,WSW,258,9.0,21.0,48,0.00,,,0.00,meteohub,2013-01-26 18:22:00,
2013-01-26 13:27:00,31.1,13.8,30.07,SW,235,10.0,26.0,48,0.00,,,0.00,meteohub,2013-01-26 18:27:00,
2013-01-26 13:32:00,30.4,12.6,30.07,SSE,168,13.0,26.0,47,0.00,,,0.00,meteohub,2013-01-26 18:32:00,
2013-01-26 13:37:00,30.2,12.4,30.07,SSW,212,6.0,26.0,47,0.00,,,0.00,meteohub,2013-01-26 18:37:00,
2013-01-26 13:42:00,30.4,12.6,30.07,SW,235,16.0,19.0,47,0.00,,,0.00,meteohub,2013-01-26 18:42:00,
2013-01-26 13:47:00,30.6,12.7,30.07,North,10,12.0,20.0,47,0.00,,,0.00,meteohub,2013-01-26 18:47:00,
2013-01-26 13:52:00,31.1,12.7,30.07,SW,235,10.0,22.0,46,0.00,,,0.00,meteohub,2013-01-26 18:52:00,
2013-01-26 13:57:00,30.7,12.4,30.07,West,280,9.0,22.0,46,0.00,,,0.00,meteohub,2013-01-26 18:57:00,
2013-01-26 14:02:00,30.6,12.2,30.07,SSW,212,8.0,22.0,46,0.00,,,0.00,meteohub,2013-01-26 19:02:00,
2013-01-26 14:07:00,30.6,12.2,30.07,NNW,348,5.0,20.0,46,0.00,,,0.00,meteohub,2013-01-26 19:07:00,
2013-01-26 14:12:00,30.2,12.4,30.07,WSW,258,18.0,20.0,47,0.00,,,0.00,meteohub,2013-01-26 19:12:00,
2013-01-26 14:17:00,30.0,12.2,30.07,WNW,302,13.0,21.0,47,0.00,,,0.00,meteohub,2013-01-26 19:17:00,
2013-01-26 14:22:00,30.2,12.4,30.07,WNW,302,4.0,21.0,47,0.00,,,0.00,meteohub,2013-01-26 19:22:00,
2013-01-26 14:27:00,30.4,12.6,30.07,North,10,9.0,21.0,47,0.00,,,0.00,meteohub,2013-01-26 19:27:00,
2013-01-26 14:32:00,30.2,12.4,30.07,NNE,32,4.0,22.0,47,0.00,,,0.00,meteohub,2013-01-26 19:32:00,
2013-01-26 14:37:00,30.4,12.6,30.07,SW,235,17.0,22.0,47,0.00,,,0.00,meteohub,2013-01-26 19:37:00,
2013-01-26 14:42:00,30.0,12.7,30.10,WNW,302,9.0,22.0,48,0.00,,,0.00,meteohub,2013-01-26 19:42:00,
2013-01-26 14:47:00,29.5,12.2,30.10,NE,55,8.0,17.0,48,0.00,,,0.00,meteohub,2013-01-26 19:47:00,
2013-01-26 14:57:00,29.8,12.6,30.10,NW,325,26.0,26.0,48,0.00,,,0.00,meteohub,2013-01-26 19:57:00,
2013-01-26 15:02:00,29.1,11.8,30.10,NNW,348,21.0,26.0,48,0.00,,,0.00,meteohub,2013-01-26 20:02:00,
2013-01-26 15:07:00,29.1,12.4,30.10,North,10,7.0,26.0,49,0.00,,,0.00,meteohub,2013-01-26 20:07:00,
2013-01-26 15:12:00,28.6,11.8,30.10,West,280,12.0,26.0,49,0.00,,,0.00,meteohub,2013-01-26 20:12:00,
2013-01-26 15:17:00,28.2,12.0,30.10,North,10,6.0,26.0,50,0.00,,,0.00,meteohub,2013-01-26 20:17:00,
2013-01-26 15:22:00,28.6,12.4,30.10,WNW,302,9.0,26.0,50,0.00,,,0.00,meteohub,2013-01-26 20:22:00,
2013-01-26 15:27:00,28.6,12.4,30.10,WNW,302,11.0,21.0,50,0.00,,,0.00,meteohub,2013-01-26 20:27:00,
2013-01-26 15:37:00,28.0,11.8,30.10,NW,325,9.0,26.0,50,0.00,,,0.00,meteohub,2013-01-26 20:37:00,
2013-01-26 15:42:00,28.2,12.0,30.10,WNW,302,9.0,26.0,50,0.00,,,0.00,meteohub,2013-01-26 20:42:00,
2013-01-26 15:47:00,27.9,12.0,30.10,SW,235,13.0,26.0,51,0.00,,,0.00,meteohub,2013-01-26 20:47:00,
2013-01-26 15:52:00,27.9,11.7,30.10,NNW,348,11.0,23.0,50,0.00,,,0.00,meteohub,2013-01-26 20:52:00,
2013-01-26 16:02:00,27.0,11.3,30.10,WNW,302,8.0,19.0,51,0.00,,,0.00,meteohub,2013-01-26 21:02:00,
2013-01-26 16:07:00,26.8,11.1,30.10,WNW,302,10.0,20.0,51,0.00,,,0.00,meteohub,2013-01-26 21:07:00,
2013-01-26 16:12:00,26.8,11.5,30.10,NW,325,9.0,25.0,52,0.00,,,0.00,meteohub,2013-01-26 21:12:00,
2013-01-26 16:17:00,26.6,11.3,30.10,NNW,348,16.0,25.0,52,0.00,,,0.00,meteohub,2013-01-26 21:17:00,
2013-01-26 16:22:00,26.4,11.1,30.10,North,10,14.0,26.0,52,0.00,,,0.00,meteohub,2013-01-26 21:22:00,
2013-01-26 16:27:00,26.2,11.1,30.10,NNW,348,15.0,26.0,52,0.00,,,0.00,meteohub,2013-01-26 21:27:00,
2013-01-26 16:32:00,26.2,11.1,30.10,WNW,302,12.0,26.0,52,0.00,,,0.00,meteohub,2013-01-26 21:32:00,
2013-01-26 16:37:00,26.2,11.5,30.10,NNW,348,13.0,26.0,53,0.00,,,0.00,meteohub,2013-01-26 21:37:00,
2013-01-26 16:42:00,26.1,10.9,30.10,NW,325,13.0,26.0,52,0.00,,,0.00,meteohub,2013-01-26 21:42:00,
2013-01-26 16:47:00,25.9,10.8,30.10,NNW,348,16.0,25.0,52,0.00,,,0.00,meteohub,2013-01-26 21:47:00,
2013-01-26 16:57:00,25.9,11.1,30.13,North,10,12.0,26.0,53,0.00,,,0.00,meteohub,2013-01-26 21:57:00,
2013-01-26 17:02:00,25.9,11.1,30.13,WNW,302,9.0,26.0,53,0.00,,,0.00,meteohub,2013-01-26 22:02:00,
2013-01-26 17:07:00,25.7,10.9,30.13,WNW,302,8.0,26.0,53,0.00,,,0.00,meteohub,2013-01-26 22:07:00,
2013-01-26 17:12:00,25.5,10.8,30.13,NW,325,10.0,17.0,53,0.00,,,0.00,meteohub,2013-01-26 22:12:00,
2013-01-26 17:17:00,25.5,10.8,30.13,SE,145,5.0,17.0,53,0.00,,,0.00,meteohub,2013-01-26 22:17:00,
2013-01-26 17:22:00,25.3,10.6,30.13,SW,235,8.0,17.0,53,0.00,,,0.00,meteohub,2013-01-26 22:22:00,
2013-01-26 17:27:00,25.2,10.4,30.16,ENE,78,13.0,17.0,53,0.00,,,0.00,meteohub,2013-01-26 22:27:00,
2013-01-26 17:32:00,25.2,10.4,30.16,WNW,302,8.0,25.0,53,0.00,,,0.00,meteohub,2013-01-26 22:32:00,
2013-01-26 17:37:00,25.0,10.2,30.16,NW,325,8.0,26.0,53,0.00,,,0.00,meteohub,2013-01-26 22:37:00,
2013-01-26 17:42:00,24.8,10.6,30.16,NNW,348,10.0,26.0,54,0.00,,,0.00,meteohub,2013-01-26 22:42:00,
2013-01-26 17:47:00,24.6,10.8,30.16,SSE,168,7.0,21.0,55,0.00,,,0.00,meteohub,2013-01-26 22:47:00,
2013-01-26 17:52:00,24.6,10.8,30.16,WSW,258,6.0,17.0,55,0.00,,,0.00,meteohub,2013-01-26 22:52:00,
2013-01-26 17:57:00,24.6,10.4,30.16,NNW,348,9.0,21.0,54,0.00,,,0.00,meteohub,2013-01-26 22:57:00,
2013-01-26 18:02:00,24.4,10.6,30.16,WNW,302,7.0,21.0,55,0.00,,,0.00,meteohub,2013-01-26 23:02:00,
2013-01-26 18:07:00,24.4,10.6,30.16,South,190,11.0,21.0,55,0.00,,,0.00,meteohub,2013-01-26 23:07:00,
2013-01-26 18:12:00,24.4,10.6,30.16,SSW,212,7.0,16.0,55,0.00,,,0.00,meteohub,2013-01-26 23:12:00,
2013-01-26 18:17:00,24.4,10.9,30.16,North,10,15.0,17.0,56,0.00,,,0.00,meteohub,2013-01-26 23:17:00,
2013-01-26 18:22:00,24.3,10.4,30.16,NNW,348,15.0,17.0,55,0.00,,,0.00,meteohub,2013-01-26 23:22:00,
2013-01-26 18:27:00,24.3,10.4,30.16,NNW,348,7.0,26.0,55,0.00,,,0.00,meteohub,2013-01-26 23:27:00,
2013-01-26 18:32:00,24.3,10.8,30.16,WSW,258,8.0,26.0,56,0.00,,,0.00,meteohub,2013-01-26 23:32:00,
2013-01-26 18:37:00,24.3,10.8,30.16,West,280,4.0,26.0,56,0.00,,,0.00,meteohub,2013-01-26 23:37:00,
2013-01-26 18:42:00,24.3,10.8,30.16,SSW,212,7.0,13.0,56,0.00,,,0.00,meteohub,2013-01-26 23:42:00,
2013-01-26 18:47:00,24.3,10.8,30.16,South,190,8.0,11.0,56,0.00,,,0.00,meteohub,2013-01-26 23:47:00,
2013-01-26 18:52:00,24.1,10.8,30.16,WSW,258,5.0,11.0,56,0.00,,,0.00,meteohub,2013-01-26 23:52:00,
2013-01-26 18:57:00,24.1,10.8,30.16,SSW,212,9.0,13.0,56,0.00,,,0.00,meteohub,2013-01-26 23:57:00,
2013-01-26 19:02:00,24.1,10.8,30.16,WNW,302,5.0,13.0,56,0.00,,,0.00,meteohub,2013-01-27 00:02:00,
2013-01-26 19:07:00,24.1,10.8,30.16,WSW,258,3.0,12.0,56,0.00,,,0.00,meteohub,2013-01-27 00:07:00,
2013-01-26 19:12:00,24.1,10.8,30.19,WNW,302,7.0,9.0,56,0.00,,,0.00,meteohub,2013-01-27 00:12:00,
2013-01-26 19:17:00,24.1,10.8,30.19,WSW,258,6.0,12.0,56,0.00,,,0.00,meteohub,2013-01-27 00:17:00,
2013-01-26 19:22:00,23.9,10.6,30.19,SE,145,0.0,12.0,56,0.00,,,0.00,meteohub,2013-01-27 00:22:00,
2013-01-26 19:27:00,23.9,10.6,30.16,WNW,302,2.0,12.0,56,0.00,,,0.00,meteohub,2013-01-27 00:27:00,
2013-01-26 19:32:00,23.9,10.6,30.16,West,280,4.0,12.0,56,0.00,,,0.00,meteohub,2013-01-27 00:32:00,
2013-01-26 19:37:00,23.9,10.6,30.16,NNW,348,9.0,12.0,56,0.00,,,0.00,meteohub,2013-01-27 00:37:00,
2013-01-26 19:42:00,23.9,10.6,30.19,NNW,348,8.0,15.0,56,0.00,,,0.00,meteohub,2013-01-27 00:42:00,
2013-01-26 19:47:00,23.9,10.6,30.19,WNW,302,6.0,15.0,56,0.00,,,0.00,meteohub,2013-01-27 00:47:00,
2013-01-26 19:52:00,23.9,10.6,30.19,West,280,7.0,15.0,56,0.00,,,0.00,meteohub,2013-01-27 00:52:00,
2013-01-26 19:57:00,23.9,10.6,30.19,North,10,16.0,16.0,56,0.00,,,0.00,meteohub,2013-01-27 00:57:00,
2013-01-26 20:02:00,23.9,10.6,30.19,SSE,168,9.0,19.0,56,0.00,,,0.00,meteohub,2013-01-27 01:02:00,
2013-01-26 20:07:00,23.9,10.6,30.19,SSW,212,6.0,19.0,56,0.00,,,0.00,meteohub,2013-01-27 01:07:00,
2013-01-26 20:12:00,23.9,10.6,30.19,WNW,302,6.0,19.0,56,0.00,,,0.00,meteohub,2013-01-27 01:12:00,
2013-01-26 20:17:00,23.9,10.6,30.19,North,10,8.0,12.0,56,0.00,,,0.00,meteohub,2013-01-27 01:17:00,
2013-01-26 20:22:00,23.9,10.6,30.19,WNW,302,4.0,12.0,56,0.00,,,0.00,meteohub,2013-01-27 01:22:00,
2013-01-26 20:27:00,23.9,10.6,30.19,NW,325,6.0,12.0,56,0.00,,,0.00,meteohub,2013-01-27 01:27:00,
2013-01-26 20:32:00,23.9,10.9,30.19,NNW,348,5.0,12.0,57,0.00,,,0.00,meteohub,2013-01-27 01:32:00,
2013-01-26 20:37:00,23.9,10.9,30.19,SSE,168,6.0,10.0,57,0.00,,,0.00,meteohub,2013-01-27 01:37:00,
2013-01-26 20:42:00,23.9,10.6,30.19,South,190,3.0,10.0,56,0.00,,,0.00,meteohub,2013-01-27 01:42:00,
2013-01-26 20:47:00,23.9,10.6,30.19,South,190,5.0,9.0,56,0.00,,,0.00,meteohub,2013-01-27 01:47:00,
2013-01-26 20:52:00,23.9,10.9,30.19,NNW,348,9.0,9.0,57,0.00,,,0.00,meteohub,2013-01-27 01:52:00,
2013-01-26 20:57:00,23.9,10.6,30.22,WSW,258,4.0,13.0,56,0.00,,,0.00,meteohub,2013-01-27 01:57:00,
2013-01-26 21:02:00,23.9,10.6,30.22,WNW,302,4.0,13.0,56,0.00,,,0.00,meteohub,2013-01-27 02:02:00,
2013-01-26 21:07:00,23.9,10.6,30.22,WNW,302,3.0,13.0,56,0.00,,,0.00,meteohub,2013-01-27 02:07:00,
2013-01-26 21:12:00,23.9,10.6,30.22,NNE,32,5.0,11.0,56,0.00,,,0.00,meteohub,2013-01-27 02:12:00,
2013-01-26 21:17:00,23.9,10.6,30.22,WSW,258,6.0,11.0,56,0.00,,,0.00,meteohub,2013-01-27 02:17:00,
2013-01-26 21:22:00,23.9,10.6,30.22,ENE,78,0.0,6.0,56,0.00,,,0.00,meteohub,2013-01-27 02:22:00,
2013-01-26 21:27:00,23.9,10.6,30.22,WSW,258,3.0,8.0,56,0.00,,,0.00,meteohub,2013-01-27 02:27:00,
2013-01-26 21:32:00,23.9,10.6,30.22,SSW,212,5.0,8.0,56,0.00,,,0.00,meteohub,2013-01-27 02:32:00,
2013-01-26 21:37:00,23.9,10.6,30.22,ESE,122,3.0,8.0,56,0.00,,,0.00,meteohub,2013-01-27 02:37:00,
2013-01-26 21:42:00,23.9,10.6,30.22,WNW,302,4.0,7.0,56,0.00,,,0.00,meteohub,2013-01-27 02:42:00,
2013-01-26 21:47:00,23.9,10.6,30.22,SW,235,5.0,7.0,56,0.00,,,0.00,meteohub,2013-01-27 02:47:00,
2013-01-26 21:52:00,23.9,10.6,30.22,WSW,258,6.0,8.0,56,0.00,,,0.00,meteohub,2013-01-27 02:52:00,
2013-01-26 21:57:00,23.9,10.6,30.22,WNW,302,4.0,12.0,56,0.00,,,0.00,meteohub,2013-01-27 02:57:00,
2013-01-26 22:02:00,23.9,10.6,30.22,East,100,0.0,12.0,56,0.00,,,0.00,meteohub,2013-01-27 03:02:00,
2013-01-26 22:07:00,23.9,10.6,30.22,NW,325,3.0,12.0,56,0.00,,,0.00,meteohub,2013-01-27 03:07:00,
2013-01-26 22:12:00,23.9,10.6,30.22,WSW,258,0.0,8.0,56,0.00,,,0.00,meteohub,2013-01-27 03:12:00,
2013-01-26 22:17:00,23.9,10.6,30.22,NNW,348,10.0,10.0,56,0.00,,,0.00,meteohub,2013-01-27 03:17:00,
2013-01-26 22:22:00,23.9,10.6,30.22,SSW,212,0.0,12.0,56,0.00,,,0.00,meteohub,2013-01-27 03:22:00,
2013-01-26 22:27:00,23.9,10.6,30.22,NW,325,3.0,12.0,56,0.00,,,0.00,meteohub,2013-01-27 03:27:00,
2013-01-26 22:32:00,23.7,10.4,30.22,North,10,3.0,10.0,56,0.00,,,0.00,meteohub,2013-01-27 03:32:00,
2013-01-26 22:37:00,23.7,10.4,30.22,SW,235,6.0,9.0,56,0.00,,,0.00,meteohub,2013-01-27 03:37:00,
2013-01-26 22:42:00,23.7,10.4,30.22,NW,325,6.0,9.0,56,0.00,,,0.00,meteohub,2013-01-27 03:42:00,
2013-01-26 22:47:00,23.7,10.4,30.22,West,280,3.0,9.0,56,0.00,,,0.00,meteohub,2013-01-27 03:47:00,
2013-01-26 22:52:00,23.7,10.4,30.22,SW,235,2.0,7.0,56,0.00,,,0.00,meteohub,2013-01-27 03:52:00,
2013-01-26 22:57:00,23.7,10.4,30.25,North,10,8.0,8.0,56,0.00,,,0.00,meteohub,2013-01-27 03:57:00,
2013-01-26 23:02:00,23.7,10.4,30.25,ESE,122,3.0,8.0,56,0.00,,,0.00,meteohub,2013-01-27 04:02:00,
2013-01-26 23:07:00,23.7,10.4,30.25,NW,325,2.0,8.0,56,0.00,,,0.00,meteohub,2013-01-27 04:07:00,
2013-01-26 23:12:00,23.7,10.4,30.28,SE,145,5.0,8.0,56,0.00,,,0.00,meteohub,2013-01-27 04:12:00,
2013-01-26 23:17:00,23.7,10.4,30.28,SSW,212,4.0,11.0,56,0.00,,,0.00,meteohub,2013-01-27 04:17:00,
2013-01-26 23:22:00,23.7,10.4,30.28,SSE,168,2.0,13.0,56,0.00,,,0.00,meteohub,2013-01-27 04:22:00,
2013-01-26 23:27:00,23.5,10.2,30.28,NNW,348,8.0,13.0,56,0.00,,,0.00,meteohub,2013-01-27 04:27:00,
2013-01-26 23:32:00,23.5,9.9,30.28,North,10,7.0,18.0,55,0.00,,,0.00,meteohub,2013-01-27 04:32:00,
2013-01-26 23:37:00,23.5,9.9,30.28,North,10,3.0,18.0,55,0.00,,,0.00,meteohub,2013-01-27 04:37:00,
2013-01-26 23:42:00,23.5,9.9,30.28,West,280,3.0,18.0,55,0.00,,,0.00,meteohub,2013-01-27 04:42:00,
2013-01-26 23:47:00,23.5,9.9,30.28,South,190,0.0,11.0,55,0.00,,,0.00,meteohub,2013-01-27 04:47:00,
2013-01-26 23:52:00,23.5,9.9,30.28,WSW,258,5.0,11.0,55,0.00,,,0.00,meteohub,2013-01-27 04:52:00,
2013-01-26 23:57:00,23.5,9.9,30.28,West,280,3.0,8.0,55,0.00,,,0.00,meteohub,2013-01-27 04:57:00,